Orbital Elements at Epoch 2459000.5 (2020-May-31.0) TDB
Reference: JPL 15 (heliocentric ecliptic J2000)
Element | Value | Uncertainty (1-sigma) | Units |
e | .1082617145925794 | 3.6365e-08 | |
a | 2.203322009727244 | 8.6685e-09 | au |
q | 1.964786591154605 | 8.344e-08 | au |
i | 4.392468324642106 | 4.8802e-06 | deg |
node | 189.0482154320411 | 4.657e-05 | deg |
peri | 64.77771426952761 | 5.3293e-05 | deg |
M | 329.7155029456216 | 2.3277e-05 | deg |
tp | 2459100.992407523142 (2020-Sep-08.49240752) | 7.717e-05 | TDB |
period | 1194.580403411416 3.27 | 7.0497e-06 1.93e-08 | d yr |
n | .3013610460810607 | 1.7785e-09 | deg/d |
Q | 2.441857428299883 | 9.6069e-09 | au |
|
| | Orbit Determination Parameters
Additional Information
|